Tracking 23732 objects as of 28-Sep-2021
HD Live streaming from Space Station
objects crossing your sky now

LES 6

Track LES 6 now!
LES 6 is classified as:


NORAD ID: 3431
Int'l Code: 1968-081D
Perigee: 35,760.1 km
Apogee: 35,817.8 km
Inclination: 3.3 °
Period: 1,435.9 minutes
Semi major axis: 42159 km
RCS: 3.1622 m2 (large)
Launch date: September 26, 1968
Source: United States (US)
Launch site: AIR FORCE EASTERN TEST RANGE (AFETR)
aabbcc
Your satellite tracking list
Your tracking list is empty




NASA's NSSDC Master Catalog

Two Line Element Set (TLE):
1 03431U 68081D   21270.89998649 -.00000288  00000-0  00000-0 0  9997
2 03431   3.3268 304.1738 0006842  15.7518 311.4324  1.00288957103505
Source of the keplerian elements: AFSPC